User: anonymous   Login
Location: Unspecified
(0.0000°N, 0.0000°E)
Time: 15:24:11
(UTC+00:00)
Language:

A-11 Canister half - Orbit

View from above orbital plane
View from above orbital plane
View from above satellite
View from above satellite

Ground track
Ground track

The orbit data is extracted from the following two-line orbital elements,

1 00051U 60009C   14293.31123866 -.00000085  00000-0  00000+0 0  6709
2 00051 047.2124 262.5462 0102253 137.3711 007.6311 12.18239120412083
Epoch (UTC): 20 October 2014 07:28:11
Eccentricity: 0.0102253
inclination: 47.2124°
perigee height: 1518 km
apogee height: 1682 km
right ascension of ascending node: 262.5462°
argument of perigee: 137.3711°
revolutions per day: 12.18239120
mean anomaly at epoch: 7.6311°
orbit number at epoch: 41208

The dashed part of the orbit path shows where the satellite is in the earth's shadow,  

DLR